Sparta, IL

3:29 AM CDT on October 18, 2017 (GMT -0500)
Sparta Community-Hunter

Weather History for KSAR - October, 2013

Change the Weather History Date:

Wednesday, October 30, 2013

  Actual Average (KBLV) Record (KBLV)
Temperature  
Mean Temperature 65 °F -  
Max Temperature 73 °F 65 °F 88 °F (1950)
Min Temperature 57 °F 40 °F 22 °F (1980)
Growing Degree Days 15 (Base 50)    
Moisture  
Dew Point 62 °F    
Average Humidity 89    
Maximum Humidity 100    
Minimum Humidity 69    
Precipitation  
Precipitation 0.07 in - - ()
Sea Level Pressure  
Sea Level Pressure 30.01 in    
Wind  
Wind Speed 6 mph (South)    
Max Wind Speed 16 mph    
Max Gust Speed 23 mph    
Visibility 8 miles    
Events Rain    
Averages and records for this station are not official NWS values.
T = Trace of Precipitation, MM = Missing Value Source: NWS Daily Summary

Daily Weather History Graph

Daily Weather History Graph

Search for Another Location

Airport or City:

Trip Planner

Search our weather history database for the weather conditions in past years. The results will help you decide how hot, cold, wet, or windy it might be!

Date:

Astronomy

Oct. 30, 2013 Rise Set
Actual Time 7:22 AM CDT 6:01 PM CDT
Civil Twilight 6:55 AM CDT 6:28 PM CDT
Nautical Twilight 6:24 AM CDT 6:59 PM CDT
Astronomical Twilight 5:53 AM CDT 7:30 PM CDT
Moon 3:15 AM CDT (10/30) 3:43 PM CDT (10/30)
Length of Visible Light 11h 32m
Length of Day
10h 38m
Waning Crescent, 17% of the Moon is Illuminated
Oct 30
Waning Crescent
Nov 3
New
Nov 9
First Quarter
Nov 17
Full
Nov 25
Last Quarter

Hourly Weather History & Observations

Time (CDT) Temp. Dew Point Humidity Pressure Visibility Wind Dir Wind Speed Gust Speed Precip Events Conditions
12:15 AM 57.2 °F 57.2 °F 100% 30.07 in 2.0 mi Calm Calm - N/A   Overcast
12:35 AM 59.0 °F 59.0 °F 100% 30.06 in 4.0 mi South 4.6 mph - N/A   Overcast
12:55 AM 60.8 °F 59.0 °F 94% 30.06 in 5.0 mi South 5.8 mph - N/A   Overcast
1:15 AM 60.8 °F 60.8 °F 100% 30.07 in 5.0 mi South 4.6 mph - N/A   Overcast
1:35 AM 60.8 °F 60.8 °F 100% 30.06 in 5.0 mi South 6.9 mph - N/A   Overcast
1:55 AM 60.8 °F 60.8 °F 100% 30.06 in 5.0 mi South 8.1 mph - N/A   Overcast
2:15 AM 60.8 °F 60.8 °F 100% 30.06 in 5.0 mi SSW 8.1 mph - N/A   Overcast
2:35 AM 60.8 °F 60.8 °F 100% 30.06 in 5.0 mi South 4.6 mph - N/A   Overcast
2:55 AM 60.8 °F 60.8 °F 100% 30.06 in 5.0 mi SSW 5.8 mph - N/A   Overcast
3:15 AM 60.8 °F 60.8 °F 100% 30.06 in 5.0 mi SSW 5.8 mph - N/A   Overcast
3:35 AM 60.8 °F 60.8 °F 100% 30.06 in 5.0 mi SSW 5.8 mph - N/A   Overcast
3:55 AM 60.8 °F 60.8 °F 100% 30.06 in 5.0 mi SSW 4.6 mph - N/A   Overcast
4:15 AM 60.8 °F 60.8 °F 100% 30.06 in 5.0 mi Calm Calm - N/A   Overcast
4:35 AM 60.8 °F 60.8 °F 100% 30.06 in 5.0 mi Calm Calm - N/A   Overcast
4:55 AM 60.8 °F 60.8 °F 100% 30.06 in 5.0 mi South 4.6 mph - N/A   Overcast
5:15 AM 60.8 °F 60.8 °F 100% 30.06 in 5.0 mi South 3.5 mph - N/A   Overcast
5:35 AM 60.8 °F 60.8 °F 100% 30.07 in 5.0 mi South 3.5 mph - N/A   Overcast
5:55 AM 60.8 °F 60.8 °F 100% 30.08 in 5.0 mi South 5.8 mph - N/A   Overcast
6:15 AM 60.8 °F 60.8 °F 100% 30.07 in 5.0 mi South 3.5 mph - N/A   Overcast
6:35 AM 60.8 °F 60.8 °F 100% 30.08 in 5.0 mi South 4.6 mph - N/A   Overcast
6:55 AM 60.8 °F 60.8 °F 100% 30.07 in 7.0 mi South 5.8 mph - N/A   Mostly Cloudy
7:15 AM 60.8 °F 60.8 °F 100% 30.07 in 7.0 mi South 5.8 mph - N/A   Scattered Clouds
7:35 AM 60.8 °F 60.8 °F 100% 30.07 in 5.0 mi South 6.9 mph - N/A   Mostly Cloudy
7:55 AM 60.8 °F 60.8 °F 100% 30.07 in 5.0 mi South 6.9 mph - N/A   Scattered Clouds
8:15 AM 62.6 °F 60.8 °F 94% 30.08 in 5.0 mi South 8.1 mph - N/A   Mostly Cloudy
8:35 AM 62.6 °F 60.8 °F 94% 30.08 in 7.0 mi South 6.9 mph - N/A   Overcast
8:55 AM 62.6 °F 60.8 °F 94% 30.08 in 7.0 mi South 8.1 mph - N/A   Mostly Cloudy
9:15 AM 62.6 °F 62.6 °F 100% 30.08 in 7.0 mi South 6.9 mph - N/A   Mostly Cloudy
9:35 AM 64.4 °F 62.6 °F 94% 30.08 in 10.0 mi South 8.1 mph - N/A   Overcast
9:55 AM 64.4 °F 62.6 °F 94% 30.07 in 10.0 mi South 9.2 mph - N/A   Mostly Cloudy
10:15 AM 66.2 °F 62.6 °F 88% 30.06 in 10.0 mi South 6.9 mph - 0.01 in   Mostly Cloudy
10:35 AM 66.2 °F 62.6 °F 88% 30.04 in 10.0 mi South 5.8 mph - 0.01 in   Scattered Clouds
10:55 AM 68.0 °F 64.4 °F 88% 30.05 in 10.0 mi South 10.4 mph 17.3 mph 0.01 in   Scattered Clouds
11:15 AM 68.0 °F 62.6 °F 83% 30.04 in 10.0 mi South 11.5 mph - N/A   Scattered Clouds
11:35 AM 69.8 °F 64.4 °F 83% 30.04 in 10.0 mi South 11.5 mph - N/A   Mostly Cloudy
11:55 AM 69.8 °F 64.4 °F 83% 30.04 in 10.0 mi SSW 10.4 mph 18.4 mph N/A   Overcast
12:15 PM 71.6 °F 64.4 °F 78% 30.04 in 10.0 mi SSW 12.7 mph 18.4 mph N/A   Overcast
12:35 PM 71.6 °F 64.4 °F 78% 30.04 in 10.0 mi SSW 12.7 mph - N/A   Mostly Cloudy
12:55 PM 71.6 °F 64.4 °F 78% 30.02 in 10.0 mi South 6.9 mph - N/A   Mostly Cloudy
1:15 PM 71.6 °F 64.4 °F 78% 30.01 in 10.0 mi South 8.1 mph - N/A   Overcast
1:35 PM 73.4 °F 62.6 °F 69% 29.99 in 10.0 mi South 8.1 mph - N/A   Overcast
1:55 PM 71.6 °F 62.6 °F 73% 29.98 in 10.0 mi South 11.5 mph 16.1 mph N/A   Mostly Cloudy
2:15 PM 71.6 °F 62.6 °F 73% 29.97 in 10.0 mi South 8.1 mph - N/A   Mostly Cloudy
2:35 PM 71.6 °F 62.6 °F 73% 29.97 in 10.0 mi South 9.2 mph - N/A   Scattered Clouds
2:55 PM 71.6 °F 62.6 °F 73% 29.97 in 10.0 mi South 12.7 mph 23.0 mph N/A   Mostly Cloudy
3:15 PM 71.6 °F 60.8 °F 69% 29.96 in 10.0 mi South 13.8 mph 21.9 mph N/A   Scattered Clouds
3:35 PM 71.6 °F 62.6 °F 73% 29.96 in 10.0 mi South 10.4 mph 17.3 mph N/A   Mostly Cloudy
3:55 PM 71.6 °F 62.6 °F 73% 29.95 in 10.0 mi South 10.4 mph - N/A   Scattered Clouds
4:15 PM 71.6 °F 60.8 °F 69% 29.95 in 10.0 mi SSW 10.4 mph - N/A   Scattered Clouds
4:35 PM 71.6 °F 60.8 °F 69% 29.95 in 10.0 mi SSW 16.1 mph 23.0 mph N/A   Overcast
4:55 PM 69.8 °F 62.6 °F 78% 29.95 in 7.0 mi SSW 13.8 mph 21.9 mph N/A Rain Rain
5:15 PM 68.0 °F 62.6 °F 83% 29.94 in 10.0 mi SSW 8.1 mph 16.1 mph N/A   Overcast
5:35 PM 69.8 °F 62.6 °F 78% 29.94 in 10.0 mi SSW 8.1 mph - N/A   Overcast
5:55 PM 68.0 °F 62.6 °F 83% 29.94 in 10.0 mi South 6.9 mph - N/A   Overcast
6:15 PM 69.8 °F 62.6 °F 78% 29.94 in 10.0 mi South 9.2 mph - N/A   Mostly Cloudy
7:55 PM 68.0 °F 60.8 °F 78% 29.94 in 10.0 mi South 10.4 mph 16.1 mph N/A   Overcast
8:15 PM 68.0 °F 60.8 °F 78% 29.94 in 10.0 mi South 9.2 mph - N/A   Overcast
8:35 PM 66.2 °F 60.8 °F 83% 29.94 in 10.0 mi South 8.1 mph - N/A   Light Drizzle
8:55 PM 66.2 °F 60.8 °F 83% 29.94 in 10.0 mi South 8.1 mph - N/A   Drizzle
9:15 PM 64.4 °F 62.6 °F 94% 29.93 in 10.0 mi South 9.2 mph 16.1 mph N/A   Drizzle
9:35 PM 64.4 °F 62.6 °F 94% 29.94 in 10.0 mi South 6.9 mph - N/A   Drizzle
9:55 PM 64.4 °F 62.6 °F 94% 29.94 in 10.0 mi South 6.9 mph - N/A   Drizzle
10:15 PM 64.4 °F 62.6 °F 94% 29.93 in 10.0 mi SSE 6.9 mph - 0.01 in Rain Light Rain
10:35 PM 64.4 °F 62.6 °F 94% 29.93 in 10.0 mi South 6.9 mph - 0.02 in Rain Light Rain
10:55 PM 64.4 °F 62.6 °F 94% 29.92 in 10.0 mi SSE 9.2 mph - 0.03 in Rain Rain
11:15 PM 64.4 °F 62.6 °F 94% 29.91 in 7.0 mi SSE 9.2 mph - 0.01 in   Drizzle
11:35 PM 64.4 °F 62.6 °F 94% 29.89 in 7.0 mi South 10.4 mph - 0.02 in   Drizzle
11:55 PM 64.4 °F 62.6 °F 94% 29.88 in 10.0 mi South 12.7 mph 18.4 mph 0.03 in Rain Rain